User: anonymous   Login
Location: Brabourne
(51.1333°N, 1.0000°E)
Time: 08:11:39
(UTC+00:00)
Language:

Cosmos 1943 Rocket - Orbit

View from above orbital plane
View from above orbital plane
View from above satellite
View from above satellite

Ground track
Ground track

The orbit data is extracted from the following two-line orbital elements,

1 19120U 88039B   21264.77640157 -.00000081  00000-0 -15473-4 0  9998
2 19120  71.0113 273.7161 0023612 315.5519  44.3710 14.19225249727103
Epoch (UTC): 21 September 2021 18:38:01
Eccentricity: 0.0023612
inclination: 71.0113°
perigee height: 811 km
apogee height: 845 km
right ascension of ascending node: 273.7161°
argument of perigee: 315.5519°
revolutions per day: 14.19225249
mean anomaly at epoch: 44.3710°
orbit number at epoch: 72710

The dashed part of the orbit path shows where the satellite is in the earth's shadow,  

DLR